Regional Weather Roundup
Issued by NWS

Home | Current Version | Previous Version | Text Only | Print | Product List | Glossary On
Versions: 1 2 3 4 5 6 7 8 9 10 11 12 13 14 15 16 17 18 19 20 21 22 23 24 25 26 27 28 29 30 31 32 33 34 35 36 37 38 39 40 41 42 43 44 45 46 47 48 49 50
000
ASUS43 KBIS 041810
RWRND

NORTH DAKOTA REGIONAL WEATHER ROUNDUP
NATIONAL WEATHER SERVICE BISMARCK ND
100 PM CDT FRI SEP 04 2015

NOTE: "FAIR" INDICATES FEW OR NO CLOUDS BELOW 12,000 FEET WITH NO
SIGNIFICANT WEATHER AND/OR OBSTRUCTIONS TO VISIBILITY.


NDZ001>003-009>011-017-041900-
NORTHWEST NORTH DAKOTA

CITY           SKY/WX    TMP DP  RH WIND       PRES   REMARKS
WILLISTON      CLOUDY    66  52  60 NE20      29.89R
6HR MIN TEMP:  61; 6HR MAX TEMP:  66; 6HR PCP: TRACE;

MINOT          CLOUDY    73  63  70 NE8       29.79F
MINOT AFB      CLOUDY    72  67  86 NE8       29.78F
$$

NDZ018>021-031>035-040>046-041900-
SOUTHWEST NORTH DAKOTA

CITY           SKY/WX    TMP DP  RH WIND       PRES   REMARKS
BISMARCK       CLOUDY    78  71  79 NE7       29.79F
6HR MIN TEMP:  71; 6HR MAX TEMP:  78;

DICKINSON      CLOUDY    70  64  81 N10       29.83R
GARRISON         N/A     72  64  76 VRB3      29.81R
6HR MIN TEMP:  66; 6HR MAX TEMP:  73;

HETTINGER ARPT SUNNY     83  59  44 NE7       29.82S
$$

NDZ004>008-012>016-024-026-027-054-041900-
NORTHEAST NORTH DAKOTA

CITY           SKY/WX    TMP DP  RH WIND       PRES   REMARKS
GRAND FORKS    TSTM      77  74  90 SE8       29.76F
GRND FRKS AFB  CLOUDY    77  73  86 SE7       29.77F
DEVILS LAKE    CLOUDY    75  66  73 SW6       29.77S THUNDER
$$

NDZ022-023-025-028>030-036>039-047>053-041900-
SOUTHEAST NORTH DAKOTA

CITY           SKY/WX    TMP DP  RH WIND       PRES   REMARKS
FARGO          CLOUDY    82  68  62 S17       29.81R
6HR MIN TEMP:  74; 6HR MAX TEMP:  84; 6HR PCP: TRACE;

JAMESTOWN      CLOUDY    75  67  76 SE8       29.80R
$$



USA.gov is the U.S. government's official web portal to all federal, state and local government web resources and services.